| time (UTC) | temp F | wind direction | speed MPH | gust MPH | rain 1hr in | rain 24hr in | rain mn in | humidity % | barometer mb |
| 20260831172001 | 74 | 0 | 0.0 | 0.0 | 0.00 | 0.00 | 0.00 | 71 | 1014.2 |
| 20260831171001 | 74 | 0 | 0.0 | 0.0 | 0.00 | 0.00 | 0.00 | 69 | 1014.1 |
| 20260831170001 | 75 | 0 | 0.0 | 0.0 | 0.00 | 0.00 | 0.00 | 68 | 1014.1 |
| 20260831165001 | 76 | 0 | 0.0 | 0.0 | 0.00 | 0.00 | 0.00 | 68 | 1014.1 |
| 20260831164001 | 76 | 0 | 0.0 | 0.0 | 0.00 | 0.00 | 0.00 | 67 | 1014.0 |
| 20260831163001 | 76 | 0 | 0.0 | 0.0 | 0.00 | 0.00 | 0.00 | 67 | 1014.0 |
| 20260831162001 | 76 | 0 | 0.0 | 0.0 | 0.00 | 0.00 | 0.00 | 67 | 1013.9 |
| 20260831161001 | 76 | 0 | 0.0 | 0.0 | 0.00 | 0.00 | 0.00 | 67 | 1013.8 |
| 20260831160001 | 76 | 0 | 0.0 | 0.0 | 0.00 | 0.00 | 0.00 | 67 | 1013.9 |
| 20260831155001 | 76 | 0 | 0.0 | 0.0 | 0.00 | 0.00 | 0.00 | 67 | 1013.8 |
| 20260831154001 | 76 | 0 | 0.0 | 0.0 | 0.00 | 0.00 | 0.00 | 67 | 1013.9 |
| 20260831153000 | 76 | 0 | 0.0 | 0.0 | 0.00 | 0.00 | 0.00 | 66 | 1014.0 |
| 20260831152000 | 77 | 0 | 0.0 | 0.0 | 0.00 | 0.00 | 0.00 | 65 | 1014.0 |
| 20260831151000 | 77 | 0 | 0.0 | 0.0 | 0.00 | 0.00 | 0.00 | 64 | 1014.1 |
| 20260831150000 | 78 | 0 | 0.0 | 0.0 | 0.00 | 0.00 | 0.00 | 63 | 1014.1 |
| 20260831145000 | 78 | 0 | 0.0 | 0.0 | 0.00 | 0.00 | 0.00 | 63 | 1014.1 |
| 20260831144000 | 78 | 0 | 0.0 | 0.0 | 0.00 | 0.00 | 0.00 | 64 | 1014.2 |
| 20260831143000 | 78 | 0 | 0.0 | 0.0 | 0.00 | 0.00 | 0.00 | 65 | 1014.1 |
| 20260831142000 | 77 | 0 | 0.0 | 0.0 | 0.00 | 0.00 | 0.00 | 65 | 1014.2 |
| 20260831141000 | 78 | 0 | 0.0 | 0.0 | 0.00 | 0.00 | 0.00 | 65 | 1014.1 |
| 20260831140001 | 79 | 0 | 0.0 | 0.0 | 0.00 | 0.00 | 0.00 | 62 | 1014.1 |
| 20260831135001 | 79 | 0 | 0.0 | 0.0 | 0.00 | 0.00 | 0.00 | 61 | 1014.2 |
| 20260831133001 | 79 | 0 | 0.0 | 0.0 | 0.00 | 0.00 | 0.00 | 61 | 1014.2 |
| 20260831132001 | 79 | 0 | 0.0 | 0.0 | 0.00 | 0.00 | 0.00 | 61 | 1014.1 |
| 20260831131001 | 79 | 0 | 0.0 | 0.0 | 0.00 | 0.00 | 0.00 | 61 | 1014.1 |
| 20260831130001 | 78 | 0 | 0.0 | 0.0 | 0.00 | 0.00 | 0.00 | 61 | 1014.2 |
| 20260831125001 | 78 | 0 | 0.0 | 0.0 | 0.00 | 0.00 | 0.00 | 61 | 11.0 |
| 20260831124001 | 79 | 0 | 0.0 | 0.0 | 0.00 | 0.00 | 0.00 | 60 | 1014.1 |
| 20260831123001 | 80 | 0 | 0.0 | 0.0 | 0.00 | 0.00 | 0.00 | 59 | 1014.2 |
| 20260831122001 | 81 | 0 | 0.0 | 0.0 | 0.00 | 0.00 | 0.00 | 59 | 1014.1 |
| 20260831120001 | 82 | 0 | 0.0 | 0.0 | 0.00 | 0.00 | 0.00 | 60 | 1014.1 |
| 20260831115001 | 81 | 0 | 0.0 | 0.0 | 0.00 | 0.00 | 0.00 | 60 | 1014.0 |
| 20260831114001 | 79 | 0 | 0.0 | 0.0 | 0.00 | 0.00 | 0.00 | 62 | 1014.0 |
| 20260831113001 | 77 | 0 | 0.0 | 0.0 | 0.00 | 0.00 | 0.00 | 66 | 1014.1 |
| 20260831112001 | 76 | 0 | 0.0 | 0.0 | 0.00 | 0.00 | 0.00 | 65 | 1014.2 |
| 20260831111001 | 77 | 0 | 0.0 | 0.0 | 0.00 | 0.00 | 0.00 | 67 | 1014.2 |
| 20260831110001 | 76 | 0 | 0.0 | 0.0 | 0.00 | 0.00 | 0.00 | 66 | 1014.3 |
| 20260831105001 | 77 | 0 | 0.0 | 0.0 | 0.00 | 0.00 | 0.00 | 65 | 1014.3 |
| 20260831104001 | 77 | 0 | 0.0 | 0.0 | 0.00 | 0.00 | 0.00 | 64 | 1014.4 |
| 20260831103001 | 77 | 0 | 0.0 | 0.0 | 0.00 | 0.00 | 0.00 | 63 | 1014.3 |
| 20260831102001 | 78 | 0 | 0.0 | 0.0 | 0.00 | 0.00 | 0.00 | 62 | 1014.4 |
| 20260831101001 | 79 | 0 | 0.0 | 0.0 | 0.00 | 0.00 | 0.00 | 63 | 1014.5 |
| 20260831100001 | 78 | 0 | 0.0 | 0.0 | 0.00 | 0.00 | 0.00 | 64 | 1014.3 |
| 20260831095001 | 77 | 0 | 0.0 | 0.0 | 0.00 | 0.00 | 0.00 | 63 | 1014.3 |
| 20260831094001 | 77 | 0 | 0.0 | 0.0 | 0.00 | 0.00 | 0.00 | 64 | 1014.3 |
| 20260831093001 | 77 | 0 | 0.0 | 0.0 | 0.00 | 0.00 | 0.00 | 62 | 1014.4 |
| 20260831092001 | 77 | 0 | 0.0 | 0.0 | 0.00 | 0.00 | 0.00 | 60 | 1014.3 |
| 20260831091001 | 77 | 0 | 0.0 | 0.0 | 0.00 | 0.00 | 0.00 | 60 | 1014.1 |
| 20260831090001 | 78 | 0 | 0.0 | 0.0 | 0.00 | 0.00 | 0.00 | 59 | 1014.2 |
| 20260831085000 | 77 | 0 | 0.0 | 0.0 | 0.00 | 0.00 | 0.00 | 59 | 1014.1 |
| 20260831084001 | 77 | 0 | 0.0 | 0.0 | 0.00 | 0.00 | 0.00 | 59 | 1014.2 |
| 20260831083000 | 80 | 0 | 0.0 | 0.0 | 0.00 | 0.00 | 0.00 | 57 | 1014.3 |
| 20260831082000 | 82 | 0 | 0.0 | 0.0 | 0.00 | 0.00 | 0.00 | 56 | 1014.3 |
| 20260831081000 | 81 | 0 | 0.0 | 0.0 | 0.00 | 0.00 | 0.00 | 57 | 1014.2 |
| 20260831080000 | 80 | 0 | 0.0 | 0.0 | 0.00 | 0.00 | 0.00 | 58 | 1014.3 |
| 20260831075000 | 79 | 0 | 0.0 | 0.0 | 0.00 | 0.00 | 0.00 | 59 | 1014.4 |
| 20260831074000 | 77 | 0 | 0.0 | 0.0 | 0.00 | 0.00 | 0.00 | 61 | 1014.3 |
| 20260831073000 | 76 | 0 | 0.0 | 0.0 | 0.00 | 0.00 | 0.00 | 64 | 1014.4 |
| 20260831072000 | 74 | 0 | 0.0 | 0.0 | 0.00 | 0.00 | 0.00 | 66 | 1014.6 |
| 20260831070001 | 69 | 0 | 0.0 | 0.0 | 0.00 | 0.00 | 0.00 | 73 | 1014.5 |
| 20260831065001 | 69 | 0 | 0.0 | 0.0 | 0.00 | 0.00 | 0.00 | 72 | 1014.7 |
| 20260831064001 | 69 | 0 | 0.0 | 0.0 | 0.00 | 0.00 | 0.00 | 72 | 1014.6 |
| 20260831063001 | 69 | 0 | 0.0 | 0.0 | 0.00 | 0.00 | 0.00 | 72 | 1014.8 |
| 20260831062001 | 67 | 0 | 0.0 | 0.0 | 0.00 | 0.00 | 0.00 | 76 | 1014.8 |
| 20260831061001 | 67 | 0 | 0.0 | 0.0 | 0.00 | 0.00 | 0.00 | 77 | 1014.8 |
| 20260831060001 | 66 | 0 | 0.0 | 0.0 | 0.00 | 0.00 | 0.00 | 78 | 1014.9 |
| 20260831055001 | 65 | 0 | 0.0 | 0.0 | 0.00 | 0.00 | 0.00 | 79 | 1014.9 |
| 20260831054001 | 65 | 0 | 0.0 | 0.0 | 0.00 | 0.00 | 0.00 | 79 | 1014.9 |
| 20260831053001 | 65 | 0 | 0.0 | 0.0 | 0.00 | 0.00 | 0.00 | 79 | 1014.9 |
| 20260831052001 | 67 | 0 | 0.0 | 0.0 | 0.00 | 0.00 | 0.00 | 76 | 1015.0 |
| 20260831051001 | 68 | 0 | 0.0 | 0.0 | 0.00 | 0.00 | 0.00 | 75 | 1014.8 |
| 20260831050001 | 64 | 0 | 0.0 | 0.0 | 0.00 | 0.00 | 0.00 | 82 | 1014.8 |
| 20260831045001 | 62 | 0 | 0.0 | 0.0 | 0.00 | 0.00 | 0.00 | 86 | 1014.8 |
| 20260831044001 | 61 | 0 | 0.0 | 0.0 | 0.00 | 0.00 | 0.00 | 87 | 1014.9 |
| 20260831043001 | 61 | 0 | 0.0 | 0.0 | 0.00 | 0.00 | 0.00 | 88 | 1014.9 |
| 20260831042001 | 61 | 0 | 0.0 | 0.0 | 0.00 | 0.00 | 0.00 | 89 | 1014.8 |
| 20260831041001 | 60 | 0 | 0.0 | 0.0 | 0.00 | 0.00 | 0.00 | 90 | 1014.8 |
| 20260831040001 | 60 | 0 | 0.0 | 0.0 | 0.00 | 0.00 | 0.00 | 91 | 1014.9 |
| 20260831035001 | 60 | 0 | 0.0 | 0.0 | 0.00 | 0.00 | 0.00 | 91 | 1014.8 |
| 20260831034001 | 60 | 0 | 0.0 | 0.0 | 0.00 | 0.00 | 0.00 | 92 | 1014.9 |
| 20260831033001 | 60 | 0 | 0.0 | 0.0 | 0.00 | 0.00 | 0.00 | 92 | 1014.9 |
| 20260831032001 | 60 | 0 | 0.0 | 0.0 | 0.00 | 0.00 | 0.00 | 91 | 1014.9 |
| 20260831031001 | 61 | 0 | 0.0 | 0.0 | 0.00 | 0.00 | 0.00 | 91 | 1014.9 |
| 20260831030001 | 61 | 0 | 0.0 | 0.0 | 0.00 | 0.00 | 0.00 | 90 | 1014.9 |
| 20260831025001 | 61 | 0 | 0.0 | 0.0 | 0.00 | 0.00 | 0.00 | 90 | 1015.0 |
| 20260831024001 | 61 | 0 | 0.0 | 0.0 | 0.00 | 0.00 | 0.00 | 90 | 1015.0 |
| 20260831023000 | 61 | 0 | 0.0 | 0.0 | 0.00 | 0.00 | 0.00 | 89 | 1014.9 |
| 20260831022000 | 62 | 0 | 0.0 | 0.0 | 0.00 | 0.00 | 0.00 | 89 | 1015.0 |
| 20260831021000 | 62 | 0 | 0.0 | 0.0 | 0.00 | 0.00 | 0.00 | 88 | 1015.0 |
| 20260831015000 | 62 | 0 | 0.0 | 0.0 | 0.00 | 0.00 | 0.00 | 88 | 6.0 |
| 20260831014000 | 62 | 0 | 0.0 | 0.0 | 0.00 | 0.00 | 0.00 | 88 | 1015.0 |
| 20260831012000 | 62 | 0 | 0.0 | 0.0 | 0.00 | 0.00 | 0.00 | 88 | 1015.0 |
| 20260831011000 | 63 | 0 | 0.0 | 0.0 | 0.00 | 0.00 | 0.00 | 87 | 1015.0 |
| 20260831010000 | 63 | 0 | 0.0 | 0.0 | 0.00 | 0.00 | 0.00 | 87 | 1015.1 |
| 20260831005000 | 63 | 0 | 0.0 | 0.0 | 0.00 | 0.00 | 0.00 | 86 | 1015.2 |
| 20260831004000 | 63 | 0 | 0.0 | 0.0 | 0.00 | 0.00 | 0.00 | 85 | 1015.2 |
| 20260831003000 | 63 | 0 | 0.0 | 0.0 | 0.00 | 0.00 | 0.00 | 85 | 1015.3 |
| 20260831002000 | 63 | 0 | 0.0 | 0.0 | 0.00 | 0.00 | 0.00 | 85 | 1015.3 |
| 20260831000001 | 64 | 0 | 0.0 | 0.0 | 0.00 | 0.00 | 0.00 | 83 | 1015.3 |
| 20260830235001 | 64 | 0 | 0.0 | 0.0 | 0.00 | 0.00 | 0.00 | 82 | 1015.3 |
| 20260830234001 | 65 | 0 | 0.0 | 0.0 | 0.00 | 0.00 | 0.00 | 81 | 1015.3 |
| 20260830233001 | 65 | 0 | 0.0 | 0.0 | 0.00 | 0.00 | 0.00 | 81 | 1015.3 |
| 20260830232001 | 65 | 0 | 0.0 | 0.0 | 0.00 | 0.00 | 0.00 | 81 | 1015.4 |
| 20260830231001 | 65 | 0 | 0.0 | 0.0 | 0.00 | 0.00 | 0.00 | 81 | 1015.3 |
| 20260830230001 | 65 | 0 | 0.0 | 0.0 | 0.00 | 0.00 | 0.00 | 81 | 1015.2 |
| 20260830225001 | 65 | 0 | 0.0 | 0.0 | 0.00 | 0.00 | 0.00 | 81 | 1015.2 |
| 20260830224001 | 66 | 0 | 0.0 | 0.0 | 0.00 | 0.00 | 0.00 | 80 | 1015.4 |
| 20260830223001 | 66 | 0 | 0.0 | 0.0 | 0.00 | 0.00 | 0.00 | 80 | 1015.5 |
| 20260830222001 | 66 | 0 | 0.0 | 0.0 | 0.00 | 0.00 | 0.00 | 78 | 1015.5 |
| 20260830221001 | 67 | 0 | 0.0 | 0.0 | 0.00 | 0.00 | 0.00 | 78 | 1015.5 |
| 20260830220001 | 67 | 0 | 0.0 | 0.0 | 0.00 | 0.00 | 0.00 | 76 | 1015.5 |
| 20260830215001 | 68 | 0 | 0.0 | 0.0 | 0.00 | 0.00 | 0.00 | 75 | 1015.3 |
| 20260830214001 | 68 | 0 | 0.0 | 0.0 | 0.00 | 0.00 | 0.00 | 73 | 1015.4 |
| 20260830213001 | 69 | 0 | 0.0 | 0.0 | 0.00 | 0.00 | 0.00 | 72 | 1015.4 |
| 20260830212001 | 69 | 0 | 0.0 | 0.0 | 0.00 | 0.00 | 0.00 | 71 | 1015.2 |
| 20260830211001 | 70 | 0 | 0.0 | 0.0 | 0.00 | 0.00 | 0.00 | 70 | 1015.3 |
| 20260830210001 | 70 | 0 | 0.0 | 0.0 | 0.00 | 0.00 | 0.00 | 70 | 1015.3 |
| 20260830205001 | 70 | 0 | 0.0 | 0.0 | 0.00 | 0.00 | 0.00 | 70 | 1015.1 |
| 20260830204001 | 70 | 0 | 0.0 | 0.0 | 0.00 | 0.00 | 0.00 | 69 | 1015.0 |
| 20260830203001 | 70 | 0 | 0.0 | 0.0 | 0.00 | 0.00 | 0.00 | 69 | 1015.1 |
| 20260830202001 | 70 | 0 | 0.0 | 0.0 | 0.00 | 0.00 | 0.00 | 70 | 1015.0 |
| 20260830201001 | 70 | 0 | 0.0 | 0.0 | 0.00 | 0.00 | 0.00 | 70 | 1015.0 |
| 20260830200001 | 69 | 0 | 0.0 | 0.0 | 0.00 | 0.00 | 0.00 | 70 | 1015.0 |
| 20260830195001 | 69 | 0 | 0.0 | 0.0 | 0.00 | 0.00 | 0.00 | 73 | 1015.0 |
| 20260830194001 | 69 | 0 | 0.0 | 0.0 | 0.00 | 0.00 | 0.00 | 72 | 1015.0 |
| 20260830193000 | 70 | 0 | 0.0 | 0.0 | 0.00 | 0.00 | 0.00 | 70 | 1015.0 |
| 20260830192000 | 70 | 0 | 0.0 | 0.0 | 0.00 | 0.00 | 0.00 | 69 | 1015.0 |
| 20260830191000 | 71 | 0 | 0.0 | 0.0 | 0.00 | 0.00 | 0.00 | 68 | 1015.0 |
| 20260830190000 | 72 | 0 | 0.0 | 0.0 | 0.00 | 0.00 | 0.00 | 66 | 1015.0 |
| 20260830185000 | 72 | 0 | 0.0 | 0.0 | 0.00 | 0.00 | 0.00 | 64 | 1015.0 |
| 20260830184000 | 73 | 0 | 0.0 | 0.0 | 0.00 | 0.00 | 0.00 | 63 | 1015.1 |
| 20260830183000 | 74 | 0 | 0.0 | 0.0 | 0.00 | 0.00 | 0.00 | 62 | 1015.0 |
| 20260830182000 | 74 | 0 | 0.0 | 0.0 | 0.00 | 0.00 | 0.00 | 62 | 1014.9 |
| 20260830181000 | 75 | 0 | 0.0 | 0.0 | 0.00 | 0.00 | 0.00 | 60 | 1014.7 |
| 20260830180000 | 76 | 0 | 0.0 | 0.0 | 0.00 | 0.00 | 0.00 | 58 | 1014.6 |
| 20260830175001 | 76 | 0 | 0.0 | 0.0 | 0.00 | 0.00 | 0.00 | 57 | 1014.6 |
| 20260830174001 | 76 | 0 | 0.0 | 0.0 | 0.00 | 0.00 | 0.00 | 57 | 1014.5 |
| 20260830173001 | 77 | 0 | 0.0 | 0.0 | 0.00 | 0.00 | 0.00 | 57 | 1014.5 |